Regional Weather Roundup
Issued by NWS

Home | Current Version | Previous Version | Text Only | Print | Product List | Glossary On
Versions: 1 2 3 4 5 6 7 8 9 10 11 12 13 14 15 16 17 18 19 20 21 22 23 24 25 26 27 28 29 30 31 32 33 34 35 36 37 38 39 40 41 42 43 44 45 46 47 48 49 50
000
ASCA44 KEWX 310720
RWRMX

LATIN AMERICA AND CARIBBEAN REGIONAL WEATHER ROUNDUP
NATIONAL WEATHER SERVICE AUSTIN/SAN ANTONIO TX
200 AM CDT MON AUG 31 2015

NOTE: "FAIR" INDICATED FEW OR NO CLOUDS BELOW 12,000 FEET WITH NO
SIGNIFICANT WEATHER AND/OR OBSTRUCTIONS TO VISIBILITY.

BAJA CALIFORNIA

CITY           SKY/WX    TMP DP  RH WIND       PRES   REMARKS
LA PAZ           N/A    N/A N/A N/A MISG        N/A
MEXICALI       CLEAR     86  46  25 SE7       29.71
TIJUANA        PTCLDY    68  61  77 W6        29.89S

NORTHWESTERN MEXICO

CITY           SKY/WX    TMP DP  RH WIND       PRES   REMARKS
HERMOSILLO     PTCLDY    90  66  45 SE3       29.84R HX  92

NORTHEASTERN MEXICO

CITY           SKY/WX    TMP DP  RH WIND       PRES   REMARKS
MONTERREY      CLEAR     73  68  83 E5        29.97F

WESTERN MEXICO

CITY           SKY/WX    TMP DP  RH WIND       PRES   REMARKS
DEL BAJIO      PTCLDY    61  55  82 CALM      30.29
GUADALAJARA    PTCLDY    66  59  77 CALM      30.16F
MAZATLAN       RAIN      73  70  88 NE13      29.84S
P. VALLARTA    CLOUDY    77  75  94 NE2       29.88F
ZACATECAS      PTCLDY    66  46  48 S14       30.28S

CENTRAL MEXICO

CITY           SKY/WX    TMP DP  RH WIND       PRES   REMARKS
MEXICO CITY    PTCLDY    61  52  72 W3        30.35F
QUERETARO      PTCLDY    59  55  88 E6        30.32F
S. LUIS POTOSI CLEAR     61  54  77 SE7       30.27S
TOLUCA         PTCLDY    52  50  93 CALM      30.40F

SOUTHERN MEXICO

CITY           SKY/WX    TMP DP  RH WIND       PRES   REMARKS
ACAPULCO       MOCLDY    81  73  78 N6        29.89F
OAXACA         PTCLDY    59  55  88 CALM      30.26F
VERACRUZ         N/A    N/A N/A N/A MISG        N/A

YUCATAN PENINSULA

CITY           SKY/WX    TMP DP  RH WIND       PRES   REMARKS
CANCUN         MOCLDY    81  79  94 SE3       29.94F
COZUMEL        PTCLDY    73  73 100 CALM      29.95S
MERIDA         PTCLDY    79  75  89 CALM      29.94F
TAPACHULA      MOCLDY    77  75  94 CALM      29.90R

CENTRAL AMERICA

CITY           SKY/WX    TMP DP  RH WIND       PRES   REMARKS
MANAGUA        MOSUNNY   79  75  89 CALM      29.86S

CARIBBEAN

CITY           SKY/WX    TMP DP  RH WIND       PRES   REMARKS
ARUBA          PTCLDY    82  77  83 E17       29.86S HX  91
CURACAO        PTCLDY    82  77  83 E10       29.89F HX  91
KINGSTON       PTCLDY    86  75  70 N3        29.92F HX  95
NASSAU         MOCLDY    81  75  83 MISG        N/A
SAN JUAN       PTCLDY    81  75  83 E3        30.02F
SANTO DOMINGO  MOCLDY    77  75  94 N5        30.00S
ST. CROIX      CLEAR     81  75  83 NE5       30.02
ST. THOMAS     CLEAR     82  77  83 E6        30.01  HX  91

$$




USA.gov is the U.S. government's official web portal to all federal, state and local government web resources and services.